Home   Weather   Seattle   Past weeks
Flag for USA

Past Weather in Seattle, Washington, USA — Yesterday and Last 2 Weeks

Now
51 °F

More clouds than sun.


Feels Like: 46 °F
Forecast: 54 / 49 °F
Wind: 15 mph from South

Location: Seattle Boeing Field

Current Time: Oct 18, 2019 at 12:50:03 pm

Latest Report: Oct 18, 2019 at 11:53 am


Visibility: 10 mi

Pressure: 29.91 "Hg

Humidity: 83%

Dew Point: 46 °F

Location of SeattleLocation

Past Weather in Seattle — Graph

°F

Seattle Temperature Yesterday

Maximum temperature yesterday: 58 °F (at 1:53 pm)
Minimum temperature yesterday: 50 °F (at 1:53 am)
Average temperature yesterday: 54 °F

High & Low Weather Summary for the Past Weeks

 TemperatureHumidityPressure
High64 °F (Oct 7, 11:53 am)96% (Oct 6, 7:53 am)30.48 "Hg (Oct 6, 7:53 am)
Low34 °F (Oct 10, 6:31 am)35% (Oct 11, 3:53 pm)29.64 "Hg (Oct 16, 4:53 pm)
Average52 °F72%30.07 "Hg
* Reported Oct 3 10:53 am — Oct 18 10:53 am, Seattle. Weather by CustomWeather, © 2019

Note: Actual official high and low records may vary slightly from our data, if they occured in-between our weather recording intervals... More about our weather records

Advertising

Seattle Weather History for the Previous 24 Hours

Scroll right to see more
 ConditionsComfort  
Time TempWeatherWind HumidityBarometerVisibility
10:53 am
Fri, Oct 18
51 °FLight rain. Cloudy.12 mph80%29.92 "Hg8 mi
9:53 am51 °FBroken clouds.15 mph77%29.92 "Hg10 mi
8:53 am49 °FBroken clouds.12 mph84%29.90 "Hg10 mi
7:53 am49 °FLight rain. Partly sunny.14 mph80%29.89 "Hg10 mi
6:53 am51 °FPartly cloudy.8 mph74%29.89 "Hg10 mi
5:53 am50 °FPassing clouds.6 mph80%29.88 "Hg10 mi
4:53 am50 °FPassing clouds.9 mph80%29.88 "Hg10 mi
3:53 am51 °FOvercast.8 mph80%29.85 "Hg10 mi
2:53 am52 °FPassing clouds.6 mph75%29.84 "Hg10 mi
1:53 am52 °FPassing clouds.10 mph75%29.80 "Hg10 mi
12:53 am53 °FPassing clouds.12 mph74%29.77 "Hg10 mi
11:53 pm
Thu, Oct 17
52 °FPartly cloudy.17 mph80%29.75 "Hg10 mi
10:53 pm52 °FPartly cloudy.12 mph80%29.75 "Hg10 mi
9:53 pm53 °FPassing clouds.13 mph77%29.72 "Hg10 mi
8:53 pm53 °FPassing clouds.9 mph77%29.69 "Hg10 mi
7:53 pm54 °FPartly cloudy.15 mph80%29.65 "Hg10 mi
6:53 pm55 °FLight rain. Overcast.16 mph74%29.65 "Hg10 mi
5:53 pm55 °FLight rain. More clouds than sun.13 mph77%29.64 "Hg9 mi
4:53 pm56 °FPartly sunny.16 mph75%29.67 "Hg10 mi
3:53 pm56 °FBroken clouds.15 mph81%29.69 "Hg10 mi
2:53 pm55 °FLight rain. Mostly cloudy.10 mph83%29.69 "Hg7 mi
1:53 pm58 °FLight rain. Partly sunny.9 mph75%29.70 "Hg10 mi
12:53 pm57 °FBroken clouds.17 mph72%29.70 "Hg10 mi
12:28 pm55 °FLight rain. Cloudy.9 mph80%29.70 "Hg5 mi
Weather by CustomWeather, © 2019

See weather overview